Location: Marse
(42.1502°N, 110.9866°W)
Time: 02:57:20
(UTC+00:00)

BEESAT - Pass Details

Date: 29 June 2022
Orbit: 700 x 706 km, 98.6° (Epoch: 11 August)

Event Time Altitude Azimuth Distance (km) Brightness Sun altitude
Rises 03:58:05 0° 12° (NNE) 3,102 ? -8.7°
Reaches altitude 10° 04:00:21 10° 11° (N) 2,181 ? -9.0°
Maximum altitude 04:05:07 78° 286° (WNW) 725 ? -9.7°
Drops below altitude 10° 04:09:52 10° 200° (SSW) 2,168 ? -10.3°
Sets 04:12:07 0° 199° (SSW) 3,083 ? -10.6°
